When you browse on this site, cookies collect data to enhance your experience and personalize the content and advertising you see.
Visit our Privacy Policy to learn more. By continuing to use the site, you agree to this use of cookies and data.
  • In United Kingdom
  • List of Countries
  • For 7 days
  • Water Temperature
  • Satellite Maps
  • Weather Map
  • Weather Widgets
  • user-avatar
    Login

    Hourly Weather Louangphabang

    Today, 22 January, Tuesday

    Time Temperature Precipitation Wind Pressure Humidity
    00:00 +17°C° 0.1 mm 0 mps 700 mmHg 89%
    01:00 +16°C° 0 mm 0 mps 700 mmHg 88%
    02:00 +16°C° 0 mm 0 mps 700 mmHg 90%
    03:00 +16°C° 0 mm 0 mps 700 mmHg 91%
    04:00 +16°C° 0 mm 0 mps 700 mmHg 92%
    05:00 +15°C° 0 mm 0 mps 701 mmHg 94%
    06:00 +15°C° 0 mm 0 mps 701 mmHg 95%
    07:00 +15°C° 0 mm 0 mps 701 mmHg 96%
    08:00 +18°C° 0 mm 0 mps 702 mmHg 85%
    09:00 +20°C° 0 mm 0 mps 703 mmHg 75%
    10:00 +22°C° 0 mm 0 mps 703 mmHg 64%
    11:00 +23°C° 0.1 mm 0 mps 703 mmHg 61%
    12:00 +26°C° 0.1 mm 1 mps 702 mmHg 59%
    13:00 +27°C° 0 mm 1 mps 702 mmHg 54%
    14:00 +27°C° 0.1 mm 1 mps 702 mmHg 54%
    15:00 +27°C° 0.1 mm 1 mps 701 mmHg 53%
    16:00 +27°C° 0.1 mm 1 mps 700 mmHg 52%
    17:00 +24°C° 0 mm 1 mps 700 mmHg 61%
    18:00 +20°C° 0 mm 0 mps 700 mmHg 70%
    19:00 +18°C° 0 mm 0 mps 700 mmHg 80%
    20:00 +17°C° 0 mm 0 mps 700 mmHg 82%
    21:00 +17°C° 0 mm 0 mps 700 mmHg 85%
    22:00 +16°C° 0 mm 0 mps 701 mmHg 87%
    23:00 +16°C° 0 mm 0 mps 700 mmHg 88%

    Tomorrow, 23 January, Wednesday

    Time Temperature Precipitation Wind Pressure Humidity
    00:00 +15°C° 0 mm 0 mps 700 mmHg 90%
    01:00 +15°C° 0 mm 0 mps 700 mmHg 91%
    02:00 +15°C° 0 mm 0 mps 700 mmHg 92%
    03:00 +15°C° 0 mm 0 mps 700 mmHg 93%
    04:00 +14°C° 0 mm 0 mps 700 mmHg 94%
    05:00 +14°C° 0 mm 0 mps 700 mmHg 95%
    06:00 +14°C° 0 mm 0 mps 700 mmHg 95%
    07:00 +14°C° 0 mm 0 mps 701 mmHg 96%
    08:00 +17°C° 0 mm 0 mps 701 mmHg 83%
    09:00 +20°C° 0 mm 0 mps 702 mmHg 70%
    10:00 +23°C° 0 mm 0 mps 703 mmHg 56%
    11:00 +25°C° 0 mm 0 mps 702 mmHg 51%
    12:00 +28°C° 0 mm 1 mps 702 mmHg 45%
    13:00 +30°C° 0 mm 1 mps 701 mmHg 39%
    14:00 +29°C° 0 mm 1 mps 700 mmHg 38%
    15:00 +29°C° 0 mm 1 mps 700 mmHg 38%
    16:00 +29°C° 0 mm 1 mps 699 mmHg 38%
    17:00 +24°C° 0 mm 0 mps 699 mmHg 47%
    18:00 +21°C° 0 mm 0 mps 699 mmHg 56%
    19:00 +19°C° 0 mm 0 mps 699 mmHg 65%
    20:00 +18°C° 0 mm 0 mps 699 mmHg 68%
    21:00 +17°C° 0 mm 0 mps 699 mmHg 71%
    22:00 +17°C° 0 mm 0 mps 700 mmHg 74%
    23:00 +16°C° 0 mm 0 mps 700 mmHg 76%

    Day after tomorrow, 24 January, Thursday

    Time Temperature Precipitation Wind Pressure Humidity
    00:00 +16°C° 0 mm 0 mps 699 mmHg 78%
    01:00 +16°C° 0 mm 0 mps 699 mmHg 80%
    02:00 +15°C° 0 mm 0 mps 699 mmHg 82%
    03:00 +15°C° 0 mm 0 mps 699 mmHg 83%
    04:00 +15°C° 0 mm 0 mps 699 mmHg 85%
    05:00 +14°C° 0 mm 0 mps 699 mmHg 86%
    06:00 +14°C° 0 mm 0 mps 699 mmHg 88%
    07:00 +14°C° 0 mm 0 mps 700 mmHg 89%
    08:00 +17°C° 0 mm 0 mps 701 mmHg 76%
    09:00 +21°C° 0 mm 0 mps 702 mmHg 64%
    10:00 +24°C° 0 mm 0 mps 703 mmHg 51%
    11:00 +26°C° 0 mm 0 mps 702 mmHg 46%
    12:00 +27°C° 0 mm 0 mps 701 mmHg 40%
    13:00 +31°C° 0 mm 1 mps 701 mmHg 35%
    14:00 +30°C° 0 mm 1 mps 700 mmHg 35%
    15:00 +28°C° 0 mm 0 mps 699 mmHg 35%
    16:00 +28°C° 0 mm 0 mps 699 mmHg 35%
    17:00 +25°C° 0 mm 0 mps 699 mmHg 44%
    18:00 +22°C° 0 mm 0 mps 699 mmHg 52%
    19:00 +19°C° 0 mm 0 mps 699 mmHg 61%
    20:00 +19°C° 0 mm 0 mps 699 mmHg 64%
    21:00 +18°C° 0 mm 0 mps 700 mmHg 67%
    22:00 +17°C° 0 mm 0 mps 700 mmHg 70%
    23:00 +17°C° 0 mm 0 mps 700 mmHg 73%

    25 January, Friday

    Time Temperature Precipitation Wind Pressure Humidity
    00:00 +16°C° 0 mm 0 mps 700 mmHg 75%
    01:00 +16°C° 0 mm 0 mps 699 mmHg 77%
    02:00 +16°C° 0 mm 0 mps 699 mmHg 79%
    03:00 +15°C° 0 mm 0 mps 699 mmHg 80%
    04:00 +15°C° 0 mm 0 mps 699 mmHg 82%
    05:00 +15°C° 0 mm 0 mps 699 mmHg 83%
    06:00 +15°C° 0 mm 0 mps 700 mmHg 85%
    07:00 +14°C° 0 mm 0 mps 700 mmHg 86%
    08:00 +18°C° 0 mm 0 mps 701 mmHg 73%
    09:00 +21°C° 0 mm 0 mps 702 mmHg 61%
    10:00 +25°C° 0 mm 0 mps 703 mmHg 48%
    11:00 +26°C° 0 mm 0 mps 703 mmHg 43%
    12:00 +28°C° 0 mm 0 mps 702 mmHg 38%
    13:00 +31°C° 0 mm 1 mps 701 mmHg 32%
    14:00 +31°C° 0 mm 1 mps 700 mmHg 32%
    15:00 +31°C° 0 mm 1 mps 700 mmHg 32%
    16:00 +30°C° 0 mm 1 mps 699 mmHg 32%
    17:00 +25°C° 0 mm 0 mps 699 mmHg 40%
    18:00 +22°C° 0 mm 0 mps 700 mmHg 49%
    19:00 +19°C° 0 mm 0 mps 700 mmHg 57%
    20:00 +19°C° 0 mm 0 mps 700 mmHg 60%
    21:00 +18°C° 0 mm 0 mps 701 mmHg 62%
    22:00 +17°C° 0 mm 0 mps 701 mmHg 65%
    23:00 +17°C° 0 mm 0 mps 701 mmHg 68%

    26 January, Saturday

    Time Temperature Precipitation Wind Pressure Humidity
    00:00 +17°C° 0 mm 0 mps 701 mmHg 70%
    01:00 +16°C° 0 mm 0 mps 701 mmHg 73%
    02:00 +16°C° 0 mm 0 mps 701 mmHg 76%
    03:00 +15°C° 0 mm 0 mps 701 mmHg 78%
    04:00 +15°C° 0 mm 0 mps 700 mmHg 81%
    05:00 +15°C° 0 mm 0 mps 701 mmHg 84%
    06:00 +14°C° 0 mm 0 mps 702 mmHg 87%
    07:00 +14°C° 0 mm 0 mps 702 mmHg 90%
    08:00 +17°C° 0 mm 0 mps 703 mmHg 78%
    09:00 +22°C° 0 mm 1 mps 704 mmHg 67%
    10:00 +25°C° 0 mm 1 mps 704 mmHg 55%
    11:00 +27°C° 0 mm 1 mps 704 mmHg 51%
    12:00 +28°C° 0 mm 1 mps 703 mmHg 47%
    13:00 +30°C° 0 mm 1 mps 703 mmHg 42%
    14:00 +29°C° 0 mm 1 mps 702 mmHg 45%
    15:00 +28°C° 0 mm 1 mps 701 mmHg 47%
    16:00 +26°C° 0 mm 0 mps 700 mmHg 49%
    17:00 +24°C° 0 mm 0 mps 701 mmHg 56%
    18:00 +22°C° 0 mm 0 mps 701 mmHg 62%
    19:00 +20°C° 0 mm 0 mps 701 mmHg 68%
    20:00 +19°C° 0 mm 0 mps 701 mmHg 72%
    21:00 +18°C° 0 mm 0 mps 702 mmHg 76%
    22:00 +18°C° 0 mm 0 mps 702 mmHg 79%
    23:00 +17°C° 0 mm 0 mps 702 mmHg 81%

    27 January, Sunday

    Time Temperature Precipitation Wind Pressure Humidity
    00:00 +17°C° 0 mm 0 mps 702 mmHg 83%
    01:00 +16°C° 0 mm 0 mps 702 mmHg 85%
    02:00 +16°C° 0 mm 0 mps 701 mmHg 87%
    03:00 +15°C° 0 mm 0 mps 701 mmHg 88%
    04:00 +15°C° 0 mm 0 mps 701 mmHg 89%
    05:00 +14°C° 0 mm 0 mps 701 mmHg 90%
    06:00 +14°C° 0 mm 0 mps 702 mmHg 91%
    07:00 +13°C° 0 mm 0 mps 702 mmHg 92%
    08:00 +17°C° 0 mm 0 mps 703 mmHg 79%
    09:00 +20°C° 0 mm 0 mps 704 mmHg 66%
    10:00 +23°C° 0 mm 0 mps 705 mmHg 53%
    11:00 +25°C° 0 mm 0 mps 704 mmHg 48%
    12:00 +26°C° 0 mm 0 mps 703 mmHg 44%
    13:00 +28°C° 0 mm 0 mps 703 mmHg 39%
    14:00 +28°C° 0 mm 0 mps 702 mmHg 40%
    15:00 +27°C° 0 mm 0 mps 701 mmHg 40%
    16:00 +27°C° 0 mm 0 mps 700 mmHg 40%
    17:00 +24°C° 0 mm 0 mps 700 mmHg 49%
    18:00 +21°C° 0 mm 0 mps 700 mmHg 58%
    19:00 +19°C° 0 mm 0 mps 700 mmHg 67%
    20:00 +18°C° 0 mm 0 mps 700 mmHg 71%
    21:00 +17°C° 0 mm 0 mps 701 mmHg 74%
    22:00 +17°C° 0 mm 0 mps 701 mmHg 78%
    23:00 +16°C° 0 mm 0 mps 701 mmHg 81%
    Show more